Regional Weather Roundup
Issued by NWS

Home | Current Version | Previous Version | Graphics & Text | Print | Product List | Glossary On
Versions: 1 2 3 4 5 6 7 8 9 10 11 12 13 14 15 16 17 18 19 20 21 22 23 24 25 26 27 28
000
ASUS45 KBOI 271010
RWRID

IDAHO REGIONAL WEATHER ROUNDUP
NATIONAL WEATHER SERVICE BOISE ID
400 AM MDT SAT AUG 27 2016

NOTE: "FAIR" INDICATES FEW OR NO CLOUDS BELOW 12000 FEET
WITH NO SIGNIFICANT WEATHER AND/OR OBSTRUCTIONS TO VISIBILITY

IDZ012-014-271100-
SOUTHWEST IDAHO


CITY           SKY/WX    TMP DP  RH WIND       PRES   REMARKS
BOISE          FAIR      62  34  35 SE8       29.91S
CALDWELL       FAIR      54  46  74 SE5       29.90S
MOUNTAIN HOME  FAIR      53  33  46 E3        29.92S
$$

IDZ016-017-271100-
SOUTHCENTRAL IDAHO


CITY           SKY/WX    TMP DP  RH WIND       PRES   REMARKS
BURLEY         FAIR      56  35  45 SW13      29.98S
JEROME         FAIR      55  34  45 SE7       29.99S
TWIN FALLS     FAIR      59  31  34 S13       29.98S
$$

IDZ019>023-271100-
SOUTHEAST IDAHO


CITY           SKY/WX    TMP DP  RH WIND       PRES   REMARKS
IDAHO FALLS    CLOUDY    45  36  70 CALM      30.02S
POCATELLO      CLEAR     49  30  48 N3        30.01S
REXBURG        CLOUDY    46  34  62 N5        30.02S
$$

IDZ006-010-011-018-031-032-271100-
CENTRAL IDAHO MOUNTAINS


CITY           SKY/WX    TMP DP  RH WIND       PRES   REMARKS
MCCALL         FAIR      45  30  55 NE3       30.03S
HAILEY         FAIR      52  34  50 NW12      30.06R
STANLEY          N/A     33  25  72 CALM      30.14S
SALMON         PTCLDY   N/A N/A N/A MISG        N/A
CHALLIS        FAIR      47  25  42 CALM      30.04R
$$

IDZ002-004-006-007-026-271100-
NORTHERN IDAHO


CITY           SKY/WX    TMP DP  RH WIND       PRES   REMARKS
LEWISTON       FAIR      65  37  35 CALM      29.80F
LOWELL           N/A     54  45  71 N3        29.91S
COEUR D`ALENE  FAIR      64  45  48 S6        29.78S
MULLAN PASS    FAIR      56  33  42 VRB6      30.00F
$$




USA.gov is the U.S. government's official web portal to all federal, state and local government web resources and services.